User: anonymous   Login
Location: Mentone
(34.5413°N, 85.5351°W)
Time: 00:27:24
(UTC-06:00)
Language:

ADEOS Rocket - Orbit

View from above orbital plane
View from above orbital plane
View from above satellite
View from above satellite

Ground track
Ground track

The orbit data is extracted from the following two-line orbital elements,

1 24279U 96046C   14328.60276176  .00000008  00000-0  53592-4 0  7615
2 24279 098.7268 016.1337 0300883 155.8377 358.3729 13.47003321898281
Epoch (UTC): 24 November 2014 14:27:58
Eccentricity: 0.0300883
inclination: 98.7268°
perigee height: 859 km
apogee height: 1308 km
right ascension of ascending node: 16.1337°
argument of perigee: 155.8377°
revolutions per day: 13.47003321
mean anomaly at epoch: 358.3729°
orbit number at epoch: 89828

The dashed part of the orbit path shows where the satellite is in the earth's shadow,  

DLR